ATLAS 5 CENTAUR DEB, 49348

Orbit data source: Space-Track

ATLAS 5 CENTAUR DEB, 49348 is space debris in HEO originally from a launch on Wed, 17 Oct 2018 UTC launched from the Air Force Eastern Test Range (AFETR). Debris objects in space refer to the collection of defunct objects orbiting the Earth. Examples of debris include non-operational satellites, rocket bodies, and fragments generated from explosions, collisions, or faulty payload assembly.

Loading next visibility...
Identifier
49348, 2018-079EZ
Orbit
HEO
Country
Flag of USUS
Related business
Flag of USUnited Launch Alliance/Lockheed Martin (US)
Manufacturer
ULA Decatur
Mission
Spacecraft
Bus & Motor
Unknown
Mass
Unknown
Launch date (UTC)
2018-10-17 (8 years ago)
Launch vehicle
Unknown
Launch site
Air Force Eastern Test Range (AFETR)
Object type
Payload
Rocket body
Debris
Shape & HBR
Unknown shape, 1.1 m
Radar Cross Section
RCS unknown

Expand to show TLE details & history
Last TLE update: 1 week ago

TLE from 1 week ago
0 ATLAS 5 CENTAUR DEB
1 49348U 18079EZ  26227.46895759 -.00000125  00000-0  00000-0 0  9994
2 49348  13.2278 354.5501 4410335  48.1254 341.8787  2.01939869 36600
Epoch: 2026-08-15T11:15Z
TLE epoch observation values (Epoch: 2026-08-15T11:15:17.935Z)
Latitude
-0.00001°
Longitude
-138.12633°
Altitude
10,092.673 km
Speed
5.773 km/s
True Right ascension
23h 38m 18s
True Declination
0° 00' 00"
Sunlit
Object was in daylight at epoch
Visualization orbit readout
Latitude
Unknown
Longitude
Unknown
Altitude
Unknown
Speed
Unknown
Apparent Right ascension
Unknown
Apparent Declination
Unknown
Sunlit
N/A
Visualization observer readout
Local Sidereal Time
20:00:30
Azimuth
Unknown
Elevation
Unknown
Doppler factor
Unknown
Orbital elements
Apogee altitude
31,725.2 km
Perigee altitude
8,401.873 km
Semi-major axis
26,441.673 km
Eccentricity
0.44103
Inclination
13.2278°
RAAN
354.5501°
Arg. of periapsis
48.1254°
True anomaly
311.68012°
Mean anomaly
341.8787°
Eccentric anomaly
328.78152°
Mean motion
0.50479 °/min
Orbital period
713.17 mins
BSTAR
0
Loading maneuver chart data...
Computing Atmospheric mass density...

Documentation

Showing up to 5 results
|